DMSP 5D-2 F11 DEB, 28326

Orbit data source: Space-Track

DMSP 5D-2 F11 DEB, 28326 is space debris in SSO originally from a launch on Thu, 28 Nov 1991 UTC launched from the Air Force Western Test Range (AFWTR). Debris objects in space refer to the collection of defunct objects orbiting the Earth. Examples of debris include non-operational satellites, rocket bodies, and fragments generated from explosions, collisions, or faulty payload assembly.

Loading next visibility...
Identifier
28326, 1991-082AP
Orbit
SSO
Country
Flag of USUS
Related business
Manufacturer
Unknown
Mission
Spacecraft
Bus & Motor
Unknown
Mass
Unknown
Launch date (UTC)
1991-11-28 (35 years ago)
Launch vehicle
Unknown
Launch site
Air Force Western Test Range (AFWTR)
Object type
Payload
Rocket body
Debris
Shape & HBR
Unknown shape, 0.1 m
Radar Cross Section
Small (<0.1 m²)

Expand to show TLE details & history
Last TLE update: 1 day ago

TLE from 1 day ago
0 DMSP 5D-2 F11 DEB
1 28326U 91082AP  26263.26423874  .00004223  00000-0  11298-2 0  9990
2 28326  98.8167  13.9023 0044118  81.7219 278.8972 14.48256768156787
Epoch: 2026-09-20T06:20Z
TLE epoch observation values (Epoch: 2026-09-20T06:20:30.227Z)
Latitude
-0.00001°
Longitude
-80.38456°
Altitude
729.581 km
Speed
7.493 km/s
True Right ascension
00h 55m 36s
True Declination
0° 00' 00"
Sunlit
Object was in full shadow at epoch
Visualization orbit readout
Latitude
Unknown
Longitude
Unknown
Altitude
Unknown
Speed
Unknown
Apparent Right ascension
Unknown
Apparent Declination
Unknown
Sunlit
N/A
Visualization observer readout
Local Sidereal Time
04:57:30
Azimuth
Unknown
Elevation
Unknown
Doppler factor
Unknown
Orbital elements
Apogee altitude
759.827 km
Perigee altitude
697.121 km
Semi-major axis
7,106.611 km
Eccentricity
0.00441
Inclination
98.8167°
RAAN
13.9023°
Arg. of periapsis
81.7219°
True anomaly
278.39731°
Mean anomaly
278.8972°
Eccentric anomaly
278.6473°
Mean motion
3.62284 °/min
Orbital period
99.37 mins
BSTAR
0.0011298
Loading maneuver chart data...
Computing Atmospheric mass density...

Documentation

Showing up to 5 results
|